This demonstration page uses our WeatherBlox Daily Observations layout. Learn more.

Hourly Observations for May 11, 2015

Temp ( °F °C ) Dew Point ( °F °C ) Humidity (%) Winds ( mph kmh ) Pressure ( in mb ) Visibility ( mi km ) Precip ( " mm )
12:15 am 00:15 Clear 37 3 30 -1 75 75 WNW 17 28 30.06 1018 10 16.09344 0 0
12:35 am 00:35 Clear 37 3 30 -1 75 75 WNW 17 28 30.06 1018 10 16.09344 0 0
12:55 am 00:55 Clear 37 3 30 -1 75 75 WNW 16 26 30.06 1018 10 16.09344 0 0
1:15 am 01:15 Clear 37 3 32 0 81 81 WNW 14 22 30.06 1018 10 16.09344 0 0
1:35 am 01:35 Partly Cloudy 39 4 32 0 75 75 NW 18 30 30.06 1018 10 16.09344 0 0
1:55 am 01:55 Partly Cloudy 39 4 32 0 75 75 NW 21 33 30.06 1018 10 16.09344 0 0
2:15 am 02:15 Partly Cloudy 39 4 30 -1 70 70 NW 22 35 30.03 1017 10 16.09344 0 0
2:35 am 02:35 Clear 39 4 30 -1 70 70 NW 18 30 30.03 1017 10 16.09344 0 0
2:55 am 02:55 Clear 39 4 30 -1 70 70 WNW 15 24 30.03 1017 10 16.09344 0 0
3:15 am 03:15 Clear 37 3 30 -1 75 75 WNW 15 24 30.03 1017 10 16.09344 0 0
3:35 am 03:35 Mostly Cloudy 37 3 32 0 81 81 WNW 15 24 30.03 1017 10 16.09344 0 0
3:55 am 03:55 Cloudy 39 4 32 0 75 75 WNW 16 26 30.06 1018 10 16.09344 0 0
4:15 am 04:15 Mostly Cloudy 39 4 32 0 75 75 WNW 18 30 30.03 1017 10 16.09344 0 0
4:35 am 04:35 Partly Cloudy 39 4 32 0 75 75 WNW 16 26 30.03 1017 10 16.09344 0 0
4:55 am 04:55 Partly Cloudy 37 3 32 0 81 81 WNW 14 22 30.03 1017 10 16.09344 0 0
5:15 am 05:15 Partly Cloudy 37 3 32 0 81 81 WNW 14 22 30.06 1018 10 16.09344 0 0
5:35 am 05:35 Partly Cloudy 37 3 32 0 81 81 W 13 20 30.06 1018 10 16.09344 0 0
5:55 am 05:55 Partly Cloudy 36 2 30 -1 81 81 W 10 17 30.09 1019 10 16.09344 0 0
6:15 am 06:15 Clear 34 1 30 -1 87 87 W 12 19 30.09 1019 10 16.09344 0 0
6:35 am 06:35 Sunny 34 1 30 -1 87 87 W 13 20 30.09 1019 10 16.09344 0 0
6:55 am 06:55 Mostly Cloudy 36 2 32 0 87 87 W 12 19 30.09 1019 10 16.09344 0 0
7:15 am 07:15 Cloudy 36 2 32 0 87 87 W 12 19 30.09 1019 10 16.09344 0 0
7:35 am 07:35 Mostly Cloudy 37 3 32 0 81 81 W 14 22 30.06 1018 10 16.09344 0 0
7:55 am 07:55 Mostly Cloudy 39 4 32 0 75 75 W 14 22 30.06 1018 10 16.09344 0 0
8:15 am 08:15 Cloudy 39 4 34 1 81 81 WNW 13 20 30.09 1019 10 16.09344 0 0
8:35 am 08:35 Cloudy 41 5 32 0 70 70 WNW 22 35 30.09 1019 10 16.09344 0 0
8:55 am 08:55 Cloudy 43 6 32 0 66 66 WNW 20 31 30.09 1019 10 16.09344 0 0
9:15 am 09:15 Mostly Cloudy 45 7 32 0 61 61 NW 23 37 30.06 1018 10 16.09344 0 0
9:35 am 09:35 Mostly Cloudy 45 7 32 0 61 61 WNW 23 37 30.06 1018 10 16.09344 0 0
9:55 am 09:55 Mostly Cloudy 46 8 32 0 57 57 NW 25 41 30.09 1019 10 16.09344 0 0
10:15 am 10:15 Mostly Cloudy 46 8 32 0 57 57 WNW 28 44 30.09 1019 10 16.09344 0 0
10:35 am 10:35 Cloudy 46 8 32 0 57 57 NW 22 35 30.09 1019 10 16.09344 0 0
10:55 am 10:55 Cloudy 48 9 30 -1 50 50 NW 26 43 30.09 1019 10 16.09344 0 0
11:15 am 11:15 Cloudy 48 9 32 0 54 54 WNW 23 37 30.09 1019 10 16.09344 0 0
11:35 am 11:35 Mostly Cloudy 50 10 32 0 50 50 WNW 21 33 30.06 1018 10 16.09344 0 0
11:55 am 11:55 Partly Cloudy 50 10 30 -1 47 47 WNW 24 39 30.06 1018 10 16.09344 0 0
12:15 pm 12:15 Partly Cloudy 52 11 30 -1 44 44 WNW 23 37 30.06 1018 10 16.09344 0 0
12:35 pm 12:35 Partly Cloudy 54 12 30 -1 41 41 NW 26 43 30.06 1018 10 16.09344 0 0
12:55 pm 12:55 Partly Cloudy 54 12 30 -1 41 41 WNW 28 44 30.06 1018 10 16.09344 0 0
1:15 pm 13:15 Partly Cloudy 54 12 30 -1 41 41 NW 29 46 30.06 1018 10 16.09344 0 0
1:35 pm 13:35 Partly Cloudy 54 12 30 -1 41 41 WNW 25 41 30.06 1018 10 16.09344 0 0
1:55 pm 13:55 Partly Cloudy 54 12 30 -1 41 41 NW 25 41 30.06 1018 10 16.09344 0 0
2:15 pm 14:15 Partly Cloudy 55 13 30 -1 38 38 NW 26 43 30.06 1018 10 16.09344 0 0
2:35 pm 14:35 Mostly Cloudy 54 12 32 0 44 44 NW 25 41 30.06 1018 10 16.09344 0 0
2:55 pm 14:55 Mostly Cloudy 54 12 32 0 44 44 NW 23 37 30.06 1018 10 16.09344 0 0
3:15 pm 15:15 Mostly Cloudy 55 13 32 0 41 41 NW 24 39 30.09 1019 10 16.09344 0 0
3:35 pm 15:35 Cloudy 54 12 32 0 44 44 NW 22 35 30.09 1019 10 16.09344 0 0
3:55 pm 15:55 Mostly Cloudy 54 12 32 0 44 44 NW 23 37 30.09 1019 10 16.09344 0 0
4:15 pm 16:15 Mostly Cloudy 54 12 32 0 44 44 NW 23 37 30.09 1019 7 11.265408 0 0
4:35 pm 16:35 Mostly Cloudy 55 13 32 0 41 41 NW 23 37 30.09 1019 10 16.09344 0 0
4:55 pm 16:55 Mostly Cloudy 55 13 32 0 41 41 NW 28 44 30.09 1019 10 16.09344 0 0
5:15 pm 17:15 Partly Cloudy 55 13 32 0 41 41 NW 23 37 30.09 1019 10 16.09344 0 0
5:35 pm 17:35 Partly Cloudy 54 12 30 -1 41 41 NNW 24 39 30.12 1020 10 16.09344 0 0
5:55 pm 17:55 Partly Cloudy 54 12 30 -1 41 41 NW 18 30 30.12 1020 10 16.09344 0 0
6:15 pm 18:15 Partly Cloudy 55 13 30 -1 38 38 NW 23 37 30.12 1020 10 16.09344 0 0
6:35 pm 18:35 Sunny 55 13 30 -1 38 38 NNW 16 26 30.12 1020 10 16.09344 0 0
6:55 pm 18:55 Partly Cloudy 55 13 28 -2 36 36 NNW 18 30 30.12 1020 10 16.09344 0 0
7:15 pm 19:15 Sunny 55 13 28 -2 36 36 NNW 20 31 30.12 1020 10 16.09344 0 0
7:35 pm 19:35 Sunny 54 12 28 -2 38 38 NNW 17 28 30.12 1020 10 16.09344 0 0
7:55 pm 19:55 Sunny 54 12 28 -2 38 38 NNW 15 24 30.12 1020 10 16.09344 0 0
8:15 pm 20:15 Sunny 52 11 28 -2 41 41 NNW 10 17 30.12 1020 10 16.09344 0 0
8:35 pm 20:35 Sunny 50 10 30 -1 47 47 NNW 7 11 30.15 1021 10 16.09344 0 0
8:55 pm 20:55 Clear 48 9 30 -1 50 50 NNW 5 7 30.15 1021 10 16.09344 0 0
9:15 pm 21:15 Clear 46 8 30 -1 53 53 NNW 5 7 30.18 1022 10 16.09344 0 0
9:35 pm 21:35 Clear 45 7 32 0 61 61 Calm 30.21 1023 10 16.09344 0 0
9:55 pm 21:55 Clear 43 6 32 0 66 66 W 3 6 30.24 1024 10 16.09344 0 0
10:15 pm 22:15 Clear 41 5 32 0 70 70 WNW 3 6 30.24 1024 10 16.09344 0 0
10:35 pm 22:35 Clear 43 6 32 0 66 66 W 3 6 30.24 1024 10 16.09344 0 0
10:55 pm 22:55 Clear 41 5 32 0 70 70 WNW 3 6 30.24 1024 10 16.09344 0 0
11:15 pm 23:15 Clear 39 4 30 -1 70 70 WNW 3 6 30.27 1025 10 16.09344 0 0
11:35 pm 23:35 Clear 39 4 32 0 75 75 WSW 5 7 30.27 1025 10 16.09344 0 0
11:55 pm 23:55 Clear 41 5 30 -1 66 66 W 5 7 30.24 1024 10 16.09344 0 0

Powered by AerisWeather